Dewpoint
57 57 57 57 57 57 58 58 58 58 58 57 58 57 56 58 58 52 24 32 41 62 65 53 42 41 46 45 41 45 43 46 44 43 38 48 47 52 52 52 53 57 59 63 70
56 56 57 57 57 57 57 57 57 57 57 57 57 58 57 58 52 42 51 59 61 68 44 39 38 46 43 39 36 34 40 42 44 46 38 44 48 50 50 51 53 55 63 67 71
56 56 56 56 56 56 57 57 57 57 57 57 57 59 58 57 50 44 66 63 64 66 29 44 39 41 37 35 32 35 35 39 36 44 45 39 46 50 49 49 52 54 62 69 70
55 55 55 55 56 56 56 56 57 56 56 57 57 58 58 55 37 49 66 67 70 53 27 36 32 33 30 27 24 27 28 34 26 33 42 40 46 48 50 47 50 54 63 68 69
55 55 55 55 55 55 56 56 56 56 56 56 57 58 55 34 24 60 69 67 55 37 23 33 32 34 26 24 24 22 23 27 28 31 33 37 42 45 49 50 51 57 64 67 68
54 54 54 54 55 55 56 56 56 55 56 56 57 58 51 17 49 60 54 42 37 27 22 35 36 34 28 25 25 27 31 32 33 35 40 41 43 45 49 53 56 61 63 65 66
53 53 53 54 54 54 55 55 54 55 57 56 57 55 42 15 49 48 36 32 32 23 24 31 37 32 29 25 32 34 29 31 35 37 37 41 40 43 52 59 59 61 64 65 66
53 53 53 53 53 54 54 54 55 57 56 56 57 55 26 42 47 40 30 30 27 28 32 36 37 34 29 33 30 29 30 26 31 37 39 37 32 42 60 59 59 61 63 64 67
52 52 53 53 54 54 53 54 56 57 57 57 56 52 18 48 40 39 30 21 23 22 23 28 33 34 34 28 20 28 21 28 31 35 33 37 33 50 61 61 60 62 64 64 66
52 52 53 53 53 53 53 53 58 57 57 56 54 36 29 35 36 31 28 27 27 24 28 30 33 31 34 25 7 17 25 29 30 29 28 30 34 44 59 61 61 62 65 65 64
52 52 53 53 53 52 50 44 34 31 36 30 29 20 25 33 35 29 27 32 30 29 27 29 23 21 24 32 29 31 27 27 28 28 30 33 37 46 55 59 60 62 64 64 62
51 52 52 52 52 52 46 32 32 33 28 29 28 30 34 34 28 32 33 34 32 28 26 26 22 24 26 31 29 27 25 24 25 22 33 35 36 45 52 55 57 59 62 62 62
51 52 52 52 51 42 38 35 35 34 28 24 26 27 25 29 24 31 33 34 33 30 27 26 23 26 26 26 26 25 24 24 21 21 33 37 32 41 47 53 55 55 57 59 60
51 51 51 50 37 37 36 38 33 33 21 13 19 22 25 25 21 30 34 32 31 30 30 28 28 25 27 26 25 26 25 23 22 21 15 28 16 35 38 44 48 53 55 54 57
50 50 50 50 39 27 34 34 32 29 11 13 21 23 22 21 25 29 33 30 30 30 30 22 27 28 28 27 27 27 24 24 22 20 25 23 19 26 38 38 42 50 54 54 58
50 49 49 44 40 34 35 33 28 11 9 15 18 17 18 19 23 29 31 30 31 29 28 26 28 27 25 28 26 26 23 24 26 23 17 24 21 24 31 39 43 46 52 54 56
49 49 48 44 24 37 36 28 11 5 13 16 14 15 15 15 20 29 29 29 27 29 29 27 25 26 26 25 27 25 26 24 17 17 16 31 28 30 35 41 45 47 50 53 56
48 48 47 45 43 40 30 21 14 4 9 17 15 15 13 14 17 28 29 28 28 27 26 21 14 26 28 25 23 26 28 22 18 16 18 31 25 29 43 48 50 51 50 51 53
48 42 40 40 44 41 29 13 8 9 20 16 16 15 14 14 14 21 28 26 28 30 26 25 23 28 28 27 25 25 25 23 26 27 21 23 28 36 48 51 49 49 50 52 57
44 41 39 43 43 34 27 22 13 17 19 18 16 17 15 14 15 17 24 22 24 29 32 29 21 23 23 26 26 26 26 24 25 25 21 23 30 28 42 47 50 50 50 57 64
39 35 39 41 36 32 20 21 22 23 16 14 18 17 16 16 14 15 18 18 23 26 30 28 27 19 24 24 23 24 24 25 25 25 20 21 23 42 44 48 52 53 54 59 62
36 32 40 36 28 30 25 26 29 19 16 16 20 20 18 18 15 15 13 17 17 25 26 30 29 25 21 24 26 25 27 30 23 30 29 27 22 36 47 48 56 55 58 61 63
38 37 41 36 20 27 25 21 22 22 22 20 20 20 21 20 22 17 16 18 16 22 30 32 30 23 23 22 27 26 26 28 34 35 35 25 23 39 50 51 57 57 60 61 61
40 33 36 37 35 32 33 30 23 32 27 26 25 26 27 24 23 22 17 16 18 24 54 40 35 33 15 20 26 30 26 27 30 28 30 25 28 35 41 50 57 61 62 61 61
40 37 38 29 33 33 34 35 33 33 37 36 28 37 36 29 23 22 19 21 19 44 37 36 36 32 28 24 21 25 32 26 31 34 28 34 32 39 43 49 54 60 64 62 60
38 37 35 35 34 30 36 37 35 35 36 34 36 38 39 33 26 28 35 30 25 31 39 41 36 37 32 34 24 22 25 32 31 30 31 33 36 40 49 54 56 60 62 63 62
39 40 38 32 33 30 34 36 35 38 37 39 38 40 38 36 40 41 42 41 39 37 36 43 41 36 28 35 34 32 31 34 35 37 35 35 41 47 49 52 57 61 62 62 62
Lifted_Index
11 12 12 12 12 12 12 12 12 12 12 12 12 12 12 11 10 9 9 10 10 9 7 7 8 7 4 2 3 2 1 0 0 0 1 0 -0 -0 -0 -0 -1 -2 -4 -5 -7
12 12 12 12 12 12 12 12 12 12 13 13 12 12 12 11 9 8 8 9 9 8 7 7 7 6 4 3 2 2 2 1 1 1 1 1 -0 -1 -1 -1 -1 -2 -4 -6 -8
12 12 12 12 12 12 12 12 13 13 13 13 12 12 11 10 7 6 7 8 8 7 8 7 6 6 4 3 2 2 1 2 2 2 1 1 0 -1 -1 -1 -2 -3 -5 -8 -9
12 12 12 12 12 12 12 12 13 13 13 13 12 12 11 9 6 5 5 6 6 7 8 7 6 6 5 4 2 1 1 2 3 3 2 1 0 -1 -1 -2 -2 -3 -5 -8 -9
13 13 13 13 13 13 13 13 13 13 13 13 12 11 10 8 6 4 5 6 7 8 8 7 6 6 5 4 2 1 1 2 3 3 3 2 1 -0 -1 -2 -3 -4 -6 -8 -9
13 13 13 13 13 13 13 13 13 12 12 12 12 11 9 7 6 5 6 8 9 9 8 7 7 6 5 4 3 2 1 2 3 3 3 2 1 0 -1 -2 -4 -5 -6 -8 -8
13 13 13 13 13 13 12 12 12 11 11 11 11 10 8 7 7 7 8 9 9 9 8 7 7 6 5 4 4 3 2 2 3 3 3 2 2 0 -1 -3 -5 -6 -7 -7 -8
13 13 13 13 13 13 12 12 11 9 9 9 9 8 8 8 8 7 8 9 9 9 8 7 7 7 6 5 4 3 2 3 3 3 3 3 2 0 -3 -4 -6 -6 -7 -7 -8
14 13 13 13 13 13 12 11 9 8 8 8 8 7 7 7 7 7 8 9 9 8 7 7 7 6 5 4 3 3 2 3 3 3 3 3 2 -0 -3 -5 -6 -7 -7 -7 -7
14 14 14 13 13 12 11 10 8 7 7 7 6 6 6 7 7 7 8 8 8 7 7 6 6 5 4 4 3 3 3 2 3 4 4 3 2 0 -3 -5 -6 -7 -7 -7 -7
15 14 14 14 13 12 10 9 8 7 7 6 6 6 6 6 6 6 7 7 7 6 5 5 4 4 4 4 4 3 3 3 3 4 4 3 2 0 -2 -4 -5 -6 -7 -6 -6
14 14 14 14 13 12 10 9 9 8 6 6 6 6 6 6 6 6 6 6 5 5 4 4 4 4 4 4 4 3 3 3 3 4 4 3 2 1 -1 -2 -3 -4 -5 -5 -5
14 14 14 14 13 12 10 9 9 8 6 5 5 5 6 6 6 5 5 5 5 4 4 3 4 4 4 4 4 3 3 3 3 3 3 3 2 1 0 -0 -1 -2 -3 -4 -4
14 14 14 14 13 11 10 9 9 7 5 3 4 5 6 6 5 5 5 5 5 4 4 4 4 4 4 4 4 4 4 4 4 3 3 2 2 2 1 1 0 -1 -2 -3 -4
14 14 14 14 12 11 10 9 9 6 3 3 4 6 6 5 5 5 5 5 5 4 4 4 4 3 3 4 4 4 4 4 4 3 2 2 2 2 2 1 1 0 -1 -2 -3
14 14 14 13 12 11 10 9 7 5 3 3 4 5 4 4 5 5 5 5 4 4 4 4 4 4 4 4 4 4 4 3 3 2 2 2 2 2 2 1 1 1 -1 -2 -2
13 13 13 13 12 11 10 8 5 3 3 3 4 4 3 4 4 4 4 4 3 3 3 3 3 4 4 4 4 4 3 2 1 1 1 2 2 2 2 1 1 1 -0 -1 -1
14 13 13 13 12 11 9 6 4 3 4 4 4 3 3 3 4 4 3 3 3 3 2 2 2 3 4 4 4 3 3 2 1 1 1 2 2 2 1 1 0 0 -0 -1 -1
13 13 13 13 13 11 7 4 3 4 4 4 3 3 3 3 3 3 3 3 4 4 3 2 2 3 4 4 4 4 3 2 2 1 1 1 2 2 1 -0 -1 -0 -1 -2 -3
13 12 12 12 12 10 6 4 4 5 5 4 3 3 3 3 3 3 4 4 4 4 4 3 3 3 4 4 4 4 3 2 2 1 1 1 1 1 0 -1 -2 -1 -2 -3 -5
11 10 11 12 11 9 6 5 6 7 6 5 4 4 4 3 3 3 4 4 4 4 4 4 3 3 3 4 4 3 3 2 1 1 0 0 1 1 -0 -1 -2 -3 -4 -5 -6
9 9 11 11 9 7 7 7 7 8 7 6 6 6 5 5 4 4 4 4 4 4 4 3 3 2 2 3 3 3 3 2 1 1 0 0 1 1 -0 -1 -3 -4 -5 -5 -5
8 9 10 10 8 7 7 8 8 8 8 7 7 7 6 5 5 4 4 4 4 4 3 3 2 1 1 2 2 2 2 2 1 1 0 0 1 0 -0 -2 -4 -5 -6 -5 -5
8 8 9 9 8 8 7 7 7 7 7 8 7 7 6 5 5 5 4 5 4 4 3 2 2 1 1 1 1 1 1 1 1 0 0 0 0 0 -1 -2 -4 -6 -6 -5 -5
7 8 8 9 8 8 7 7 7 6 6 7 7 6 5 5 5 5 5 4 4 4 3 2 1 1 1 1 1 0 0 0 0 -0 -0 -0 0 -0 -1 -2 -4 -5 -6 -6 -5
8 8 8 8 8 8 7 7 6 6 6 6 5 5 5 5 5 5 5 4 4 4 3 1 1 1 1 1 1 0 0 -0 -0 -0 -1 -1 -0 -0 -1 -2 -3 -5 -6 -6 -6
10 9 7 7 8 8 8 7 6 6 6 5 5 5 5 5 5 5 5 4 4 4 3 1 0 1 1 1 1 0 0 -0 -0 -0 -1 -1 -1 -1 -1 -2 -3 -5 -6 -6 -6